Location: Greenwich
(51.4790°N, 0.0090°E)
Time: 16:54:04
(UTC+01:00)

Explorer 7 - All Passes

Search period start: 23 June 2025 00:00
Search period end: 03 July 2025 00:00
Orbit: 445 x 571 km, 50.3° (Epoch: 22 June)

Date Brightness Start Highest point End Pass type
(mag) Time Alt. Az. Time Alt. Az. Time Alt. Az.
23 Jun - 14:35:52 10° SW 14:39:18 34° SSE 14:42:38 10° E daylight
23 Jun - 16:14:13 10° WSW 16:17:54 71° S 16:21:29 10° E daylight
23 Jun - 17:53:04 10° W 17:56:39 60° SSW 18:00:08 10° ESE daylight
23 Jun - 19:32:14 10° W 19:35:02 22° SSW 19:37:48 10° SSE daylight
24 Jun - 12:41:25 10° SE 12:42:00 10° SE 12:42:33 10° SE daylight
24 Jun - 14:16:37 10° SW 14:20:07 36° SSE 14:23:30 10° E daylight
24 Jun - 15:55:02 10° WSW 15:58:44 72° S 16:02:19 10° E daylight
24 Jun - 17:33:53 10° W 17:37:28 58° SSW 17:40:57 10° ESE daylight
24 Jun - 19:13:06 10° W 19:15:50 21° SSW 19:18:32 10° SSE daylight
25 Jun - 12:21:37 10° SSE 12:22:46 11° SE 12:23:53 10° ESE daylight
25 Jun - 13:57:21 10° SW 14:00:54 37° SSE 14:04:20 10° E daylight
25 Jun - 15:35:49 10° W 15:39:33 73° S 15:43:08 10° E daylight
25 Jun - 17:14:41 10° W 17:18:16 57° SSW 17:21:46 10° ESE daylight
25 Jun - 18:53:57 10° W 18:56:37 20° SW 18:59:15 10° SSE daylight
26 Jun - 12:02:01 10° SSE 12:03:30 12° SE 12:04:59 10° ESE daylight
26 Jun - 13:38:05 10° SW 13:41:41 39° SSE 13:45:09 10° E daylight
26 Jun - 15:16:35 10° W 15:20:20 74° S 15:23:57 10° E daylight
26 Jun - 16:55:28 10° W 16:59:04 55° SSW 17:02:33 10° ESE daylight
26 Jun - 18:34:47 10° W 18:37:23 19° SW 18:39:57 10° SSE daylight
27 Jun - 11:42:29 10° SSE 11:44:15 13° SE 11:45:59 10° ESE daylight
27 Jun - 13:18:48 10° SW 13:22:27 41° SSE 13:25:58 10° E daylight
27 Jun - 14:57:20 10° W 15:01:07 74° S 15:04:45 10° E daylight
27 Jun - 16:36:14 10° W 16:39:51 53° SSW 16:43:20 10° ESE daylight
27 Jun - 18:15:37 10° W 18:18:08 18° SW 18:20:38 10° S daylight
28 Jun - 11:22:58 10° S 11:24:58 14° SE 11:26:56 10° ESE daylight
28 Jun - 12:59:30 10° SW 13:03:11 42° SSE 13:06:45 10° E daylight
28 Jun - 14:38:04 10° W 14:41:53 75° S 14:45:31 10° E daylight
28 Jun - 16:16:59 10° W 16:20:36 52° SSW 16:24:05 10° ESE daylight
28 Jun - 17:56:25 10° W 17:58:52 17° SW 18:01:16 10° S daylight
29 Jun - 11:03:28 10° S 11:05:41 15° SE 11:07:50 10° ESE daylight
29 Jun - 12:40:11 10° SW 12:43:55 44° SSE 12:47:31 10° E daylight
29 Jun - 14:18:48 10° W 14:22:37 75° S 14:26:17 10° E daylight
29 Jun - 15:57:42 10° W 16:01:19 50° SSW 16:04:49 10° ESE daylight
29 Jun - 17:37:13 10° WSW 17:39:35 16° SW 17:41:54 10° S daylight
30 Jun - 10:43:58 10° S 10:46:22 15° SE 10:48:42 10° ESE daylight
30 Jun - 12:20:51 10° SW 12:24:38 46° SSE 12:28:16 10° E daylight
30 Jun - 13:59:30 10° W 14:03:21 75° S 14:07:02 10° E daylight
30 Jun - 15:38:25 10° W 15:42:03 49° SSW 15:45:33 10° SE daylight
30 Jun - 17:18:01 10° WSW 17:20:17 16° SW 17:22:30 10° S daylight
01 Jul - 10:24:29 10° S 10:27:02 16° SE 10:29:32 10° ESE daylight
01 Jul - 12:01:31 10° SW 12:05:20 48° SSE 12:09:01 10° E daylight
01 Jul - 13:40:11 10° W 13:44:03 76° S 13:47:46 10° E daylight
01 Jul - 15:19:07 10° W 15:22:45 47° SSW 15:26:15 10° SE daylight
01 Jul - 16:58:48 10° WSW 17:00:57 15° SW 17:03:05 10° S daylight
02 Jul - 10:04:59 10° S 10:07:41 17° SE 10:10:20 10° E daylight
02 Jul - 11:42:09 10° SW 11:46:01 49° SSE 11:49:43 10° E daylight
02 Jul - 13:20:52 10° W 13:24:45 76° S 13:28:28 10° E daylight
02 Jul - 14:59:48 10° W 15:03:27 46° SSW 15:06:57 10° SE daylight
02 Jul - 16:39:34 10° WSW 16:41:37 14° SW 16:43:38 10° S daylight
